| time (UTC) | temp C | wind direction | speed KPH | gust KPH | rain 1hr cm | rain 24hr cm | rain mn cm | humidity % | barometer mb |
| 20260903115204 | 23 | 251 | 4.8 | 19.3 | 0.00 | 0.00 | 0.00 | 67 | 1014.8 |
| 20260903114204 | 23 | 269 | 6.4 | 16.1 | 0.00 | 0.00 | 0.00 | 67 | 1015.0 |
| 20260903113704 | 23 | 200 | 3.2 | 16.1 | 0.00 | 0.00 | 0.00 | 68 | 1015.0 |
| 20260903113204 | 23 | 197 | 3.2 | 19.3 | 0.00 | 0.00 | 0.00 | 68 | 1015.1 |
| 20260903112704 | 23 | 252 | 3.2 | 19.3 | 0.00 | 0.00 | 0.00 | 68 | 1015.0 |
| 20260903111704 | 23 | 228 | 6.4 | 14.5 | 0.00 | 0.00 | 0.00 | 68 | 1015.0 |
| 20260903111204 | 23 | 180 | 6.4 | 19.3 | 0.00 | 0.00 | 0.00 | 68 | 1015.0 |
| 20260903110704 | 23 | 281 | 3.2 | 19.3 | 0.00 | 0.00 | 0.00 | 68 | 1015.0 |
| 20260903110204 | 23 | 220 | 4.8 | 19.3 | 0.00 | 0.00 | 0.00 | 69 | 1015.1 |
| 20260903105205 | 22 | 247 | 6.4 | 22.5 | 0.00 | 0.03 | 0.00 | 69 | 1015.3 |
| 20260903104704 | 22 | 190 | 4.8 | 27.4 | 0.00 | 0.03 | 0.00 | 69 | 1015.2 |
| 20260903104204 | 22 | 265 | 6.4 | 27.4 | 0.00 | 0.03 | 0.00 | 69 | 1015.2 |
| 20260903103204 | 22 | 248 | 14.5 | 22.5 | 0.00 | 0.03 | 0.00 | 68 | 1015.2 |
| 20260903102705 | 22 | 166 | 3.2 | 22.5 | 0.00 | 0.03 | 0.00 | 69 | 1015.3 |
| 20260903102204 | 23 | 195 | 3.2 | 14.5 | 0.00 | 0.03 | 0.00 | 69 | 1015.4 |
| 20260903101703 | 22 | 244 | 3.2 | 14.5 | 0.00 | 0.03 | 0.00 | 70 | 1015.4 |
| 20260903101204 | 22 | 157 | 3.2 | 17.7 | 0.00 | 0.03 | 0.00 | 72 | 1015.3 |
| 20260903100726 | 22 | 247 | 4.8 | 17.7 | 0.00 | 0.03 | 0.00 | 72 | 1015.4 |
| 20260903100204 | 21 | 226 | 4.8 | 20.9 | 0.00 | 0.03 | 0.00 | 73 | 1015.4 |
| 20260903095704 | 21 | 168 | 4.8 | 20.9 | 0.00 | 0.03 | 0.00 | 73 | 1015.3 |
| 20260903095204 | 21 | 223 | 3.2 | 24.1 | 0.00 | 0.03 | 0.00 | 74 | 1015.6 |
| 20260903094704 | 21 | 250 | 6.4 | 24.1 | 0.00 | 0.03 | 0.00 | 73 | 1015.5 |
| 20260903094204 | 21 | 250 | 9.7 | 25.7 | 0.00 | 0.03 | 0.00 | 73 | 1015.4 |
| 20260903093204 | 21 | 234 | 8.0 | 25.7 | 0.00 | 0.03 | 0.00 | 74 | 1015.6 |
| 20260903092704 | 21 | 240 | 6.4 | 20.9 | 0.00 | 0.03 | 0.00 | 74 | 1015.6 |
| 20260903092204 | 21 | 237 | 8.0 | 20.9 | 0.00 | 0.03 | 0.00 | 75 | 1015.5 |
| 20260903091705 | 21 | 302 | 9.7 | 20.9 | 0.00 | 0.03 | 0.00 | 75 | 1015.6 |
| 20260903091204 | 21 | 223 | 6.4 | 22.5 | 0.00 | 0.03 | 0.00 | 75 | 1015.6 |
| 20260903090231 | 21 | 272 | 8.0 | 20.9 | 0.00 | 0.03 | 0.00 | 75 | 1015.4 |
| 20260903085205 | 21 | 244 | 4.8 | 24.1 | 0.00 | 0.03 | 0.00 | 76 | 1015.4 |
| 20260903084704 | 21 | 199 | 4.8 | 24.1 | 0.00 | 0.03 | 0.00 | 76 | 1015.3 |
| 20260903083704 | 21 | 245 | 11.3 | 17.7 | 0.00 | 0.03 | 0.00 | 77 | 1015.2 |
| 20260903083204 | 21 | 255 | 3.2 | 17.7 | 0.00 | 0.03 | 0.00 | 77 | 1015.1 |
| 20260903082704 | 20 | 254 | 6.4 | 14.5 | 0.00 | 0.03 | 0.00 | 77 | 1014.8 |
| 20260903082204 | 20 | 224 | 4.8 | 14.5 | 0.00 | 0.03 | 0.00 | 77 | 1014.8 |
| 20260903081704 | 20 | 259 | 4.8 | 14.5 | 0.00 | 0.03 | 0.00 | 77 | 1014.6 |
| 20260903081205 | 20 | 197 | 3.2 | 14.5 | 0.00 | 0.03 | 0.00 | 77 | 1014.6 |
| 20260903080205 | 20 | 258 | 4.8 | 11.3 | 0.00 | 0.03 | 0.00 | 77 | 1014.4 |
| 20260903075704 | 20 | 266 | 4.8 | 19.3 | 0.00 | 0.03 | 0.00 | 77 | 1014.4 |
| 20260903075205 | 20 | 131 | 4.8 | 19.3 | 0.00 | 0.03 | 0.00 | 77 | 1014.2 |
| 20260903074705 | 20 | 240 | 1.6 | 19.3 | 0.00 | 0.03 | 0.00 | 77 | 1014.2 |
| 20260903074204 | 20 | 190 | 3.2 | 14.5 | 0.00 | 0.03 | 0.00 | 77 | 1014.0 |
| 20260903073731 | 20 | 241 | 4.8 | 14.5 | 0.00 | 0.03 | 0.00 | 77 | 1014.1 |
| 20260903073204 | 20 | 272 | 3.2 | 14.5 | 0.00 | 0.03 | 0.00 | 77 | 1013.9 |
| 20260903072204 | 20 | 226 | 3.2 | 17.7 | 0.00 | 0.03 | 0.00 | 77 | 1013.8 |
| 20260903071204 | 20 | 178 | 3.2 | 17.7 | 0.00 | 0.03 | 0.00 | 77 | 1014.0 |
| 20260903070704 | 20 | 200 | 3.2 | 14.5 | 0.00 | 0.03 | 0.00 | 77 | 1014.1 |
| 20260903070209 | 19 | 224 | 1.6 | 14.5 | 0.00 | 0.03 | 0.00 | 77 | 1013.9 |
| 20260903065705 | 19 | 217 | 3.2 | 14.5 | 0.00 | 0.03 | 0.00 | 77 | 1014.0 |
| 20260903065205 | 19 | 178 | 3.2 | 16.1 | 0.00 | 0.03 | 0.00 | 77 | 1014.0 |
| 20260903064705 | 19 | 223 | 4.8 | 17.7 | 0.00 | 0.03 | 0.00 | 77 | 1014.2 |
| 20260903064204 | 19 | 241 | 6.4 | 17.7 | 0.00 | 0.03 | 0.00 | 77 | 1014.2 |
| 20260903063704 | 19 | 250 | 6.4 | 17.7 | 0.00 | 0.03 | 0.00 | 77 | 1014.3 |
| 20260903063204 | 19 | 240 | 4.8 | 14.5 | 0.00 | 0.03 | 0.00 | 77 | 1014.1 |
| 20260903062704 | 19 | 176 | 4.8 | 14.5 | 0.00 | 0.03 | 0.00 | 77 | 1014.0 |
| 20260903062204 | 19 | 248 | 3.2 | 14.5 | 0.00 | 0.03 | 0.00 | 77 | 1014.1 |
| 20260903061705 | 19 | 120 | 1.6 | 16.1 | 0.00 | 0.03 | 0.00 | 77 | 1014.0 |
| 20260903061204 | 19 | 212 | 1.6 | 16.1 | 0.00 | 0.03 | 0.00 | 76 | 1014.1 |
| 20260903060704 | 19 | 166 | 3.2 | 16.1 | 0.00 | 0.03 | 0.00 | 76 | 1014.0 |
| 20260903060204 | 19 | 110 | 3.2 | 16.1 | 0.00 | 0.03 | 0.00 | 76 | 1014.0 |
| 20260903055704 | 19 | 228 | 4.8 | 16.1 | 0.00 | 0.03 | 0.00 | 76 | 1014.0 |
| 20260903055205 | 19 | 175 | 3.2 | 9.7 | 0.00 | 0.03 | 0.00 | 76 | 1013.9 |
| 20260903054703 | 19 | 193 | 3.2 | 9.7 | 0.00 | 0.03 | 0.00 | 76 | 1013.9 |
| 20260903054204 | 19 | 204 | 1.6 | 9.7 | 0.00 | 0.03 | 0.00 | 76 | 1013.8 |
| 20260903053704 | 19 | 238 | 1.6 | 11.3 | 0.00 | 0.03 | 0.00 | 76 | 1013.7 |
| 20260903053204 | 19 | 207 | 3.2 | 11.3 | 0.00 | 0.03 | 0.00 | 76 | 1013.8 |
| 20260903052204 | 19 | 169 | 4.8 | 11.3 | 0.00 | 0.03 | 0.00 | 76 | 1013.6 |
| 20260903051704 | 19 | 203 | 3.2 | 11.3 | 0.00 | 0.03 | 0.00 | 76 | 1013.7 |
| 20260903051204 | 19 | 196 | 3.2 | 11.3 | 0.00 | 0.03 | 0.00 | 76 | 1013.6 |
| 20260903050704 | 19 | 196 | 6.4 | 11.3 | 0.00 | 0.03 | 0.00 | 76 | 1013.8 |
| 20260903050203 | 19 | 197 | 3.2 | 16.1 | 0.00 | 0.03 | 0.00 | 76 | 1013.8 |
| 20260903045714 | 19 | 102 | 3.2 | 16.1 | 0.00 | 0.03 | 0.00 | 76 | 1013.6 |
| 20260903045204 | 18 | 221 | 4.8 | 16.1 | 0.00 | 0.03 | 0.00 | 76 | 1013.7 |
| 20260903044704 | 18 | 178 | 3.2 | 11.3 | 0.00 | 0.03 | 0.00 | 76 | 1013.5 |
| 20260903044204 | 18 | 244 | 3.2 | 11.3 | 0.00 | 0.03 | 0.00 | 75 | 1013.4 |
| 20260903043704 | 18 | 240 | 1.6 | 11.3 | 0.00 | 0.03 | 0.00 | 75 | 1013.6 |
| 20260903043204 | 18 | 190 | 1.6 | 9.7 | 0.00 | 0.03 | 0.00 | 75 | 1013.5 |
| 20260903042704 | 18 | 199 | 3.2 | 9.7 | 0.00 | 0.03 | 0.00 | 75 | 1013.6 |
| 20260903042204 | 18 | 217 | 1.6 | 9.7 | 0.00 | 0.03 | 0.00 | 75 | 1013.6 |
| 20260903041704 | 18 | 190 | 3.2 | 9.7 | 0.00 | 0.03 | 0.00 | 75 | 1013.6 |
| 20260903040729 | 19 | 237 | 3.2 | 11.3 | 0.00 | 0.03 | 0.00 | 75 | 1013.7 |
| 20260903040204 | 19 | 204 | 1.6 | 8.0 | 0.00 | 0.03 | 0.00 | 75 | 1013.8 |
| 20260903035704 | 19 | 231 | 3.2 | 9.7 | 0.00 | 0.03 | 0.00 | 75 | 1013.7 |
| 20260903035204 | 19 | 196 | 3.2 | 14.5 | 0.00 | 0.03 | 0.00 | 75 | 1013.7 |
| 20260903034704 | 19 | 247 | 3.2 | 14.5 | 0.00 | 0.03 | 0.00 | 75 | 1013.6 |
| 20260903034205 | 19 | 180 | 3.2 | 14.5 | 0.00 | 0.03 | 0.00 | 75 | 1013.4 |
| 20260903033704 | 19 | 254 | 4.8 | 11.3 | 0.00 | 0.03 | 0.00 | 75 | 1013.5 |
| 20260903033204 | 18 | 157 | 3.2 | 16.1 | 0.00 | 0.03 | 0.00 | 75 | 1013.5 |
| 20260903032205 | 18 | 179 | 3.2 | 16.1 | 0.00 | 0.03 | 0.00 | 75 | 1013.7 |
| 20260903031204 | 18 | 199 | 3.2 | 11.3 | 0.00 | 0.03 | 0.00 | 75 | 1013.6 |
| 20260903030704 | 18 | 197 | 4.8 | 9.7 | 0.00 | 0.03 | 0.00 | 75 | 1013.6 |
| 20260903023704 | 18 | 220 | 3.2 | 11.3 | 0.00 | 0.03 | 0.00 | 76 | 1013.6 |
| 20260903023214 | 18 | 189 | 1.6 | 11.3 | 0.00 | 0.03 | 0.00 | 76 | 1013.7 |
| 20260903022204 | 18 | 178 | 3.2 | 9.7 | 0.00 | 0.03 | 0.00 | 75 | 1013.7 |
| 20260903021704 | 18 | 164 | 1.6 | 8.0 | 0.00 | 0.03 | 0.00 | 75 | 1013.7 |
| 20260903015705 | 18 | 162 | 0.0 | 14.5 | 0.00 | 0.03 | 0.00 | 75 | 1013.7 |
| 20260903015204 | 18 | 180 | 3.2 | 14.5 | 0.00 | 0.03 | 0.00 | 75 | 1013.7 |
| 20260903014704 | 18 | 196 | 0.0 | 14.5 | 0.00 | 0.03 | 0.00 | 75 | 1013.8 |
| 20260903014204 | 18 | 189 | 3.2 | 11.3 | 0.00 | 0.03 | 0.00 | 75 | 1013.8 |
| 20260903013704 | 18 | 164 | 3.2 | 11.3 | 0.00 | 0.03 | 0.00 | 75 | 1013.7 |
| 20260903013204 | 18 | 197 | 3.2 | 11.3 | 0.00 | 0.03 | 0.00 | 75 | 1013.9 |
| 20260903012205 | 18 | 185 | 3.2 | 8.0 | 0.00 | 0.03 | 0.00 | 75 | 1013.8 |
| 20260903011705 | 18 | 196 | 3.2 | 16.1 | 0.00 | 0.03 | 0.00 | 75 | 1013.8 |
| 20260903011205 | 18 | 183 | 1.6 | 16.1 | 0.00 | 0.03 | 0.00 | 75 | 1013.8 |
| 20260903010703 | 18 | 203 | 3.2 | 8.0 | 0.00 | 0.03 | 0.00 | 75 | 1013.7 |
| 20260903005704 | 18 | 162 | 3.2 | 9.7 | 0.00 | 0.03 | 0.00 | 75 | 1014.1 |
| 20260903005204 | 18 | 190 | 3.2 | 9.7 | 0.00 | 0.03 | 0.00 | 75 | 1014.2 |
| 20260903004704 | 18 | 188 | 3.2 | 16.1 | 0.00 | 0.03 | 0.00 | 75 | 1014.3 |
| 20260903004204 | 18 | 203 | 1.6 | 16.1 | 0.00 | 0.03 | 0.00 | 75 | 1014.2 |
| 20260903002704 | 18 | 179 | 3.2 | 16.1 | 0.00 | 0.03 | 0.00 | 75 | 1014.1 |
| 20260903001704 | 18 | 185 | 3.2 | 16.1 | 0.00 | 0.03 | 0.00 | 75 | 1014.3 |
| 20260903001204 | 18 | 212 | 4.8 | 9.7 | 0.00 | 0.03 | 0.00 | 75 | 1014.2 |
| 20260903000704 | 18 | 203 | 1.6 | 14.5 | 0.00 | 0.03 | 0.00 | 75 | 1014.3 |
| 20260903000204 | 18 | 272 | 3.2 | 14.5 | 0.00 | 0.03 | 0.00 | 75 | 1014.3 |
| 20260902235704 | 18 | 195 | 3.2 | 14.5 | 0.00 | 0.03 | 0.00 | 75 | 1014.2 |
| 20260902235207 | 18 | 228 | 3.2 | 9.7 | 0.00 | 0.03 | 0.00 | 75 | 1014.1 |
| 20260902234704 | 18 | 178 | 4.8 | 9.7 | 0.00 | 0.03 | 0.00 | 75 | 1014.3 |
| 20260902234203 | 18 | 258 | 1.6 | 9.7 | 0.00 | 0.03 | 0.00 | 75 | 1014.3 |
| 20260902233704 | 18 | 199 | 3.2 | 9.7 | 0.00 | 0.03 | 0.00 | 75 | 1014.3 |
| 20260902233204 | 18 | 255 | 3.2 | 8.0 | 0.00 | 0.03 | 0.00 | 75 | 1014.3 |
| 20260902232703 | 18 | 228 | 3.2 | 8.0 | 0.00 | 0.03 | 0.00 | 75 | 1014.3 |
| 20260902232204 | 18 | 161 | 3.2 | 11.3 | 0.00 | 0.03 | 0.00 | 75 | 1014.4 |
| 20260902231204 | 18 | 175 | 3.2 | 11.3 | 0.00 | 0.03 | 0.00 | 75 | 1014.4 |
| 20260902230730 | 19 | 180 | 3.2 | 11.3 | 0.00 | 0.03 | 0.00 | 75 | 1014.6 |
| 20260902230204 | 19 | 124 | 3.2 | 11.3 | 0.00 | 0.03 | 0.03 | 75 | 1014.6 |
| 20260902225704 | 19 | 243 | 3.2 | 11.3 | 0.00 | 0.03 | 0.03 | 75 | 1014.6 |
| 20260902225204 | 19 | 197 | 3.2 | 9.7 | 0.00 | 0.03 | 0.03 | 75 | 1014.6 |
| 20260902224704 | 19 | 234 | 4.8 | 11.3 | 0.00 | 0.03 | 0.03 | 75 | 1014.7 |
| 20260902224204 | 19 | 235 | 3.2 | 20.9 | 0.00 | 0.03 | 0.03 | 75 | 1014.7 |
| 20260902223705 | 19 | 193 | 3.2 | 20.9 | 0.00 | 0.03 | 0.03 | 75 | 1014.5 |
| 20260902223203 | 19 | 255 | 4.8 | 14.5 | 0.00 | 0.03 | 0.03 | 75 | 1014.5 |
| 20260902222704 | 19 | 217 | 3.2 | 14.5 | 0.00 | 0.03 | 0.03 | 75 | 1014.3 |
| 20260902222205 | 19 | 185 | 1.6 | 14.5 | 0.00 | 0.03 | 0.03 | 75 | 1014.2 |
| 20260902220704 | 19 | 168 | 4.8 | 20.9 | 0.00 | 0.03 | 0.03 | 75 | 1014.2 |
| 20260902215204 | 19 | 189 | 1.6 | 17.7 | 0.00 | 0.03 | 0.03 | 75 | 1014.0 |
| 20260902214705 | 19 | 217 | 3.2 | 17.7 | 0.00 | 0.03 | 0.03 | 75 | 1014.3 |
| 20260902214204 | 19 | 207 | 3.2 | 16.1 | 0.00 | 0.03 | 0.03 | 75 | 1014.2 |
| 20260902213704 | 19 | 216 | 3.2 | 16.1 | 0.00 | 0.03 | 0.03 | 75 | 1014.3 |
| 20260902213204 | 19 | 203 | 4.8 | 11.3 | 0.00 | 0.03 | 0.03 | 75 | 1014.2 |
| 20260902212704 | 19 | 197 | 3.2 | 14.5 | 0.00 | 0.03 | 0.03 | 75 | 1014.3 |
| 20260902212205 | 19 | 195 | 3.2 | 14.5 | 0.00 | 0.03 | 0.03 | 75 | 1014.3 |
| 20260902211704 | 19 | 264 | 3.2 | 11.3 | 0.00 | 0.03 | 0.03 | 75 | 1014.5 |
| 20260902211204 | 19 | 240 | 4.8 | 11.3 | 0.00 | 0.03 | 0.03 | 74 | 1014.5 |
| 20260902210704 | 19 | 219 | 3.2 | 11.3 | 0.00 | 0.03 | 0.03 | 74 | 1014.4 |
| 20260902210204 | 19 | 183 | 4.8 | 11.3 | 0.00 | 0.03 | 0.03 | 74 | 1014.5 |
| 20260902205704 | 19 | 228 | 4.8 | 16.1 | 0.00 | 0.03 | 0.03 | 74 | 1014.4 |
| 20260902205204 | 19 | 175 | 3.2 | 16.1 | 0.00 | 0.03 | 0.03 | 73 | 1014.3 |
| 20260902204724 | 19 | 241 | 3.2 | 8.0 | 0.00 | 0.03 | 0.03 | 73 | 1014.3 |
| 20260902204204 | 19 | 261 | 3.2 | 6.4 | 0.00 | 0.03 | 0.03 | 72 | 1014.2 |
| 20260902203707 | 19 | 213 | 1.6 | 9.7 | 0.00 | 0.03 | 0.03 | 72 | 1014.2 |
| 20260902203204 | 19 | 186 | 0.0 | 9.7 | 0.00 | 0.03 | 0.03 | 71 | 1014.2 |
| 20260902202704 | 18 | 176 | 3.2 | 6.4 | 0.00 | 0.03 | 0.03 | 71 | 1014.3 |
| 20260902202209 | 19 | 107 | 1.6 | 6.4 | 0.00 | 0.03 | 0.03 | 71 | 1014.4 |
| 20260902201704 | 18 | 173 | 3.2 | 9.7 | 0.00 | 0.03 | 0.03 | 71 | 1014.4 |
| 20260902201204 | 18 | 189 | 1.6 | 9.7 | 0.00 | 0.03 | 0.03 | 71 | 1014.5 |
| 20260902200704 | 18 | 200 | 3.2 | 9.7 | 0.00 | 0.03 | 0.03 | 71 | 1014.4 |
| 20260902195705 | 19 | 125 | 3.2 | 9.7 | 0.00 | 0.03 | 0.03 | 72 | 1014.4 |
| 20260902195204 | 19 | 173 | 3.2 | 9.7 | 0.00 | 0.03 | 0.03 | 72 | 1014.6 |
| 20260902194704 | 19 | 189 | 3.2 | 9.7 | 0.00 | 0.03 | 0.03 | 72 | 1014.6 |
| 20260902193704 | 19 | 176 | 3.2 | 9.7 | 0.00 | 0.03 | 0.03 | 73 | 1014.7 |
| 20260902193204 | 18 | 210 | 1.6 | 9.7 | 0.00 | 0.03 | 0.03 | 73 | 1014.7 |
| 20260902192704 | 18 | 248 | 3.2 | 8.0 | 0.00 | 0.03 | 0.03 | 73 | 1014.4 |
| 20260902192206 | 18 | 169 | 1.6 | 9.7 | 0.00 | 0.03 | 0.03 | 73 | 1014.3 |
| 20260902191704 | 18 | 180 | 3.2 | 9.7 | 0.00 | 0.03 | 0.03 | 73 | 1014.3 |
| 20260902191204 | 18 | 213 | 3.2 | 9.7 | 0.00 | 0.03 | 0.03 | 73 | 1014.3 |
| 20260902190704 | 18 | 214 | 3.2 | 9.7 | 0.00 | 0.03 | 0.03 | 74 | 1014.2 |
| 20260902185704 | 18 | 178 | 3.2 | 16.1 | 0.00 | 0.03 | 0.03 | 74 | 1014.3 |
| 20260902185205 | 18 | 196 | 3.2 | 16.1 | 0.00 | 0.03 | 0.03 | 74 | 1014.4 |
| 20260902184204 | 18 | 176 | 3.2 | 11.3 | 0.00 | 0.03 | 0.03 | 74 | 1014.4 |
| 20260902183704 | 18 | 219 | 3.2 | 11.3 | 0.00 | 0.03 | 0.03 | 75 | 1014.5 |
| 20260902183204 | 18 | 183 | 4.8 | 14.5 | 0.00 | 0.03 | 0.03 | 75 | 1014.4 |
| 20260902182704 | 18 | 204 | 3.2 | 14.5 | 0.00 | 0.03 | 0.03 | 75 | 1014.4 |
| 20260902182204 | 18 | 162 | 3.2 | 14.5 | 0.00 | 0.03 | 0.03 | 76 | 1014.4 |
| 20260902181704 | 18 | 161 | 1.6 | 17.7 | 0.00 | 0.03 | 0.03 | 76 | 1014.5 |
| 20260902181205 | 18 | 113 | 3.2 | 17.7 | 0.00 | 0.03 | 0.03 | 76 | 1014.5 |
| 20260902180204 | 18 | 192 | 3.2 | 16.1 | 0.00 | 0.03 | 0.03 | 76 | 1014.7 |
| 20260902175204 | 18 | 121 | 3.2 | 16.1 | 0.00 | 0.03 | 0.03 | 77 | 1014.8 |
| 20260902174705 | 19 | 168 | 3.2 | 11.3 | 0.00 | 0.03 | 0.03 | 77 | 1014.9 |
| 20260902174204 | 19 | 147 | 4.8 | 11.3 | 0.00 | 0.03 | 0.03 | 77 | 1014.7 |
| 20260902173704 | 19 | 188 | 3.2 | 11.3 | 0.00 | 0.03 | 0.03 | 77 | 1014.8 |
| 20260902173204 | 19 | 166 | 3.2 | 22.5 | 0.00 | 0.03 | 0.03 | 77 | 1014.8 |
| 20260902172705 | 19 | 173 | 4.8 | 22.5 | 0.00 | 0.03 | 0.03 | 76 | 1014.8 |
| 20260902172204 | 19 | 172 | 3.2 | 22.5 | 0.00 | 0.03 | 0.03 | 76 | 1014.8 |
| 20260902171704 | 19 | 154 | 8.0 | 19.3 | 0.00 | 0.03 | 0.03 | 76 | 1014.8 |
| 20260902171203 | 19 | 169 | 4.8 | 19.3 | 0.00 | 0.03 | 0.03 | 76 | 1014.6 |
| 20260902170704 | 19 | 133 | 3.2 | 16.1 | 0.00 | 0.03 | 0.03 | 75 | 1014.7 |
| 20260902170205 | 19 | 151 | 4.8 | 16.1 | 0.00 | 0.03 | 0.03 | 75 | 1014.8 |
| 20260902165705 | 20 | 200 | 3.2 | 16.1 | 0.00 | 0.03 | 0.03 | 74 | 1014.8 |
| 20260902165204 | 20 | 261 | 4.8 | 16.1 | 0.00 | 0.03 | 0.03 | 74 | 1014.8 |
| 20260902164728 | 20 | 0 | 6.4 | 8.0 | 0.00 | 0.03 | 0.03 | 73 | 1014.9 |
| 20260902164204 | 20 | 164 | 3.2 | 14.5 | 0.00 | 0.03 | 0.03 | 73 | 1015.0 |
| 20260902163704 | 20 | 159 | 3.2 | 19.3 | 0.00 | 0.03 | 0.03 | 73 | 1014.9 |
| 20260902162705 | 20 | 195 | 4.8 | 17.7 | 0.00 | 0.03 | 0.03 | 72 | 1015.2 |
| 20260902160705 | 21 | 206 | 4.8 | 16.1 | 0.00 | 0.03 | 0.03 | 67 | 1015.1 |
| 20260902160203 | 21 | 149 | 8.0 | 19.3 | 0.00 | 0.03 | 0.03 | 66 | 1015.0 |
| 20260902155704 | 21 | 223 | 4.8 | 19.3 | 0.00 | 0.03 | 0.03 | 67 | 1015.2 |
| 20260902155204 | 21 | 123 | 1.6 | 17.7 | 0.00 | 0.03 | 0.03 | 67 | 1015.3 |
| 20260902154704 | 20 | 183 | 4.8 | 17.7 | 0.00 | 0.03 | 0.03 | 67 | 1015.4 |
| 20260902154205 | 21 | 240 | 3.2 | 17.7 | 0.00 | 0.03 | 0.03 | 67 | 1015.3 |
| 20260902153704 | 21 | 172 | 8.0 | 17.7 | 0.00 | 0.03 | 0.03 | 66 | 1015.4 |
| 20260902153204 | 20 | 159 | 4.8 | 17.7 | 0.00 | 0.03 | 0.03 | 67 | 1015.5 |
| 20260902152205 | 20 | 147 | 4.8 | 16.1 | 0.00 | 0.03 | 0.03 | 66 | 1015.5 |
| 20260902151705 | 21 | 131 | 4.8 | 16.1 | 0.00 | 0.03 | 0.03 | 66 | 1015.6 |
| 20260902151205 | 21 | 165 | 4.8 | 17.7 | 0.00 | 0.03 | 0.03 | 67 | 1015.5 |
| 20260902150705 | 20 | 71 | 3.2 | 17.7 | 0.00 | 0.03 | 0.03 | 67 | 1015.6 |
| 20260902150204 | 20 | 175 | 4.8 | 19.3 | 0.00 | 0.03 | 0.03 | 66 | 1015.8 |
| 20260902145707 | 20 | 188 | 4.8 | 19.3 | 0.00 | 0.03 | 0.03 | 66 | 1015.8 |
| 20260902145211 | 20 | 204 | 4.8 | 19.3 | 0.00 | 0.03 | 0.03 | 66 | 1015.8 |
| 20260902144704 | 20 | 141 | 6.4 | 17.7 | 0.00 | 0.03 | 0.03 | 65 | 1015.8 |
| 20260902144205 | 20 | 182 | 3.2 | 17.7 | 0.00 | 0.03 | 0.03 | 65 | 1015.8 |
| 20260902143704 | 20 | 130 | 4.8 | 17.7 | 0.00 | 0.03 | 0.03 | 65 | 1015.9 |
| 20260902143206 | 20 | 234 | 4.8 | 20.9 | 0.00 | 0.03 | 0.03 | 64 | 1015.9 |
| 20260902142705 | 21 | 217 | 6.4 | 20.9 | 0.00 | 0.03 | 0.03 | 64 | 1015.9 |
| 20260902142206 | 21 | 240 | 4.8 | 20.9 | 0.00 | 0.03 | 0.03 | 64 | 1016.0 |
| 20260902141704 | 21 | 230 | 4.8 | 20.9 | 0.00 | 0.03 | 0.03 | 64 | 1016.0 |
| 20260902141204 | 20 | 240 | 3.2 | 20.9 | 0.00 | 0.03 | 0.03 | 64 | 1016.1 |
| 20260902140704 | 20 | 279 | 6.4 | 17.7 | 0.00 | 0.03 | 0.03 | 64 | 1016.1 |
| 20260902140211 | 20 | 168 | 4.8 | 17.7 | 0.00 | 0.03 | 0.03 | 65 | 1016.1 |
| 20260902135706 | 20 | 237 | 3.2 | 17.7 | 0.00 | 0.03 | 0.03 | 65 | 1016.1 |
| 20260902135205 | 20 | 204 | 6.4 | 17.7 | 0.00 | 0.03 | 0.03 | 65 | 1016.2 |
| 20260902134704 | 20 | 176 | 4.8 | 17.7 | 0.00 | 0.03 | 0.03 | 65 | 1016.2 |
| 20260902133704 | 20 | 48 | 4.8 | 17.7 | 0.00 | 0.03 | 0.03 | 65 | 1016.3 |
| 20260902133204 | 20 | 199 | 6.4 | 22.5 | 0.00 | 0.03 | 0.03 | 65 | 1016.3 |
| 20260902132704 | 20 | 83 | 8.0 | 22.5 | 0.00 | 0.03 | 0.03 | 64 | 1016.3 |
| 20260902132203 | 20 | 217 | 4.8 | 22.5 | 0.00 | 0.03 | 0.03 | 68 | 1016.3 |
| 20260902131704 | 20 | 90 | 6.4 | 17.7 | 0.00 | 0.03 | 0.03 | 68 | 1016.4 |
| 20260902131205 | 20 | 230 | 6.4 | 16.1 | 0.00 | 0.03 | 0.03 | 68 | 1016.4 |
| 20260902130706 | 20 | 120 | 4.8 | 16.1 | 0.00 | 0.03 | 0.03 | 69 | 1016.5 |
| 20260902130204 | 20 | 188 | 4.8 | 16.1 | 0.00 | 0.03 | 0.03 | 69 | 1016.5 |
| 20260902125204 | 20 | 165 | 6.4 | 20.9 | 0.00 | 0.03 | 0.03 | 67 | 1016.5 |
| 20260902124703 | 20 | 207 | 3.2 | 14.5 | 0.00 | 0.03 | 0.03 | 69 | 1016.6 |
| 20260902124205 | 20 | 265 | 4.8 | 14.5 | 0.00 | 0.03 | 0.03 | 71 | 1016.6 |
| 20260902123706 | 20 | 206 | 4.8 | 16.1 | 0.00 | 0.03 | 0.03 | 73 | 1016.7 |
| 20260902123203 | 20 | 228 | 4.8 | 16.1 | 0.00 | 0.03 | 0.03 | 74 | 1016.7 |
| 20260902122704 | 20 | 192 | 3.2 | 16.1 | 0.00 | 0.03 | 0.03 | 75 | 1016.7 |
| 20260902121704 | 20 | 185 | 6.4 | 17.7 | 0.00 | 0.03 | 0.03 | 74 | 1016.8 |
| 20260902121205 | 20 | 118 | 3.2 | 17.7 | 0.00 | 0.03 | 0.03 | 73 | 1016.8 |
| 20260902120703 | 20 | 189 | 4.8 | 16.1 | 0.00 | 0.03 | 0.03 | 73 | 1016.8 |
| 20260902120206 | 20 | 243 | 3.2 | 16.1 | 0.00 | 0.03 | 0.03 | 73 | 1016.9 |
| 20260902115703 | 20 | 220 | 4.8 | 11.3 | 0.00 | 0.03 | 0.03 | 74 | 1016.9 |